Lapse_Rate
5.1 5.2 5.1 5.1 4.3 3.5 3.6 3.6 4.0 3.9 4.3 4.3 5.0 5.1 5.3 4.9 5.0 4.9 5.0 5.3 5.5 5.6 5.6 5.6 5.6 5.6 5.5 5.3 5.1 4.9 5.1 5.2 5.3 5.4 5.4 5.4 5.4 5.4
5.2 5.2 5.1 5.2 4.7 4.5 4.4 3.8 3.6 3.9 3.9 4.8 5.1 5.3 5.4 5.1 5.1 5.0 5.1 5.3 5.6 5.7 5.7 5.5 5.6 5.6 5.3 5.0 4.8 4.7 4.8 5.0 5.0 5.1 5.1 5.1 5.2 5.1
5.2 5.2 5.2 5.3 5.2 5.1 5.1 4.8 4.1 3.5 3.8 5.0 5.6 5.5 5.4 5.0 5.0 5.1 5.1 5.0 5.4 5.4 5.5 5.3 5.1 5.3 5.2 5.1 5.0 5.1 5.0 5.1 5.2 5.4 5.3 5.1 5.1 5.1
5.3 5.1 5.2 5.3 5.2 5.1 5.1 4.8 4.5 5.0 4.7 5.6 5.7 5.5 5.3 4.9 4.9 5.0 5.2 5.4 5.1 5.0 5.2 5.3 5.0 5.0 5.1 5.2 5.1 5.3 5.2 5.3 5.3 5.3 5.1 5.1 5.1 5.0
5.3 5.2 5.3 5.3 5.2 5.2 5.1 5.0 5.1 5.0 4.9 5.0 5.1 5.0 4.7 4.8 4.9 4.9 4.9 5.0 5.2 5.1 4.9 4.9 5.0 5.3 5.3 5.3 5.3 5.4 5.2 5.2 5.4 5.5 5.4 5.2 5.0 5.0
5.4 5.2 5.3 5.3 5.2 5.3 5.1 5.2 5.2 5.0 4.9 4.5 4.4 4.4 4.6 4.8 4.9 5.0 4.9 5.1 5.4 5.2 4.9 4.9 5.0 5.1 5.2 5.2 5.2 5.1 5.1 5.1 5.0 5.1 5.0 5.0 4.8 4.8
5.4 5.4 5.4 5.4 5.3 5.3 5.1 5.2 5.2 5.0 4.8 4.5 4.4 4.3 4.4 4.5 4.8 4.8 4.8 5.3 4.7 4.9 5.4 5.4 5.4 5.3 5.0 5.3 5.2 5.1 4.9 4.6 4.8 4.8 4.9 4.9 4.9 4.8
5.3 5.4 5.5 5.3 5.4 5.3 5.3 5.2 5.1 4.9 4.8 4.6 4.4 4.4 4.4 4.7 5.0 5.0 4.9 5.0 5.1 5.3 5.1 5.2 5.2 5.2 5.5 5.7 5.5 5.2 5.0 4.8 4.8 4.8 4.8 4.8 4.9 4.9
5.2 5.3 5.5 5.4 5.6 5.5 5.4 5.3 5.2 5.2 4.8 4.6 4.5 4.5 4.8 5.1 5.0 5.1 5.1 5.3 5.5 5.3 5.4 5.5 5.5 5.4 5.5 5.2 5.3 5.3 5.3 5.1 4.9 4.8 4.7 4.8 4.8 4.6
5.3 5.6 5.4 5.5 5.7 5.6 5.6 5.4 5.4 5.2 4.9 4.9 4.9 5.0 5.0 5.0 5.0 5.1 5.2 5.3 5.4 5.5 5.5 5.4 5.3 5.2 5.3 5.5 5.5 5.3 5.1 5.0 4.9 4.7 4.7 4.6 4.6 4.4
5.6 5.8 5.5 5.5 5.8 5.7 5.6 5.5 5.4 5.2 5.1 5.0 4.8 5.1 5.2 5.1 5.2 5.3 5.4 5.5 5.6 5.6 5.6 5.7 5.5 5.5 5.5 5.6 5.7 5.5 5.5 5.3 5.1 5.1 5.0 4.9 4.9 4.5
5.8 5.7 5.5 5.5 5.8 5.9 5.6 5.6 5.4 5.4 5.4 5.1 5.0 5.2 5.3 5.3 5.4 5.5 5.6 5.8 6.0 5.9 5.8 5.8 5.7 5.5 5.6 5.8 5.5 5.6 5.7 5.5 5.0 5.0 5.2 5.1 4.9 4.6
5.8 5.8 5.8 5.6 5.9 5.9 5.8 5.8 5.6 5.4 5.5 5.4 5.3 5.2 5.2 5.3 5.5 5.6 5.7 5.8 5.8 5.8 5.8 5.8 5.7 5.6 5.4 5.2 5.2 5.3 5.1 5.3 5.3 5.1 4.9 4.6 4.6 4.5
5.9 5.7 5.8 5.8 5.9 6.0 5.9 5.8 5.8 5.8 5.7 5.7 5.6 5.6 5.7 5.6 5.7 5.8 6.0 6.1 6.1 6.2 6.1 6.1 6.0 5.6 5.6 5.3 4.8 4.3 4.3 4.7 4.5 4.6 4.1 4.3 4.5 4.3
5.9 6.0 6.0 6.0 6.1 6.1 6.0 6.0 5.9 6.0 5.9 5.8 5.8 5.9 5.9 5.9 6.0 6.0 6.1 6.1 6.2 6.2 6.4 6.3 6.2 6.0 5.8 5.6 5.0 4.9 4.8 4.4 4.6 4.2 4.2 4.3 4.2 3.8
5.9 5.8 5.9 6.0 6.0 6.1 6.2 6.2 6.1 6.1 6.0 5.9 5.9 6.0 6.2 6.2 6.2 6.2 6.2 6.1 6.2 6.3 6.3 6.4 6.3 6.2 5.8 5.5 5.3 5.2 4.9 4.7 4.3 4.1 3.9 4.0 4.2 4.1
5.8 6.0 6.1 6.2 6.3 6.3 6.3 6.5 6.3 6.3 6.3 6.3 6.2 6.2 6.4 6.5 6.5 6.4 6.2 6.2 6.3 6.3 6.2 6.7 6.6 6.2 5.9 5.7 5.1 4.5 4.7 4.2 4.2 3.7 3.7 4.2 4.2 4.1
5.9 5.9 6.0 6.3 6.7 6.7 6.5 6.5 6.4 6.5 6.4 6.5 6.6 6.6 6.8 6.8 6.8 6.7 6.5 6.5 6.6 6.6 6.6 6.3 6.4 6.5 6.0 5.6 5.1 4.7 4.7 4.5 4.0 3.5 3.7 4.0 4.0 3.8
6.1 6.1 6.3 6.5 6.6 6.8 6.6 6.6 6.8 6.7 6.8 6.8 6.8 7.0 6.9 6.8 6.7 6.6 6.5 6.6 6.7 6.7 6.7 6.7 6.1 5.5 5.3 5.2 4.7 4.9 4.1 3.6 3.8 3.5 3.6 3.9 4.0 3.9
6.1 6.0 6.1 6.2 6.5 6.6 6.6 6.8 6.9 6.8 6.8 6.9 7.0 7.0 7.1 6.9 6.8 6.7 6.6 6.7 6.8 7.0 6.9 7.1 6.7 5.9 5.0 4.9 4.4 4.4 3.7 3.2 3.6 3.6 3.4 3.8 3.8 4.1
6.1 6.0 6.0 6.3 6.7 6.9 7.1 7.1 7.2 7.0 7.0 7.1 7.3 7.3 7.2 7.0 6.9 6.8 6.7 6.8 6.9 6.9 6.9 7.0 6.2 5.4 5.4 5.3 4.6 3.6 2.7 3.0 3.0 3.6 3.5 3.9 3.9 3.7
6.7 6.7 6.7 6.6 6.7 6.9 7.0 7.0 7.1 7.1 7.2 7.4 7.3 7.2 7.2 7.2 7.1 6.9 7.1 7.2 7.0 7.2 7.2 6.9 5.8 5.2 5.3 4.9 4.3 3.8 3.5 3.3 3.0 3.4 3.8 3.8 3.7 3.8
6.3 6.3 6.4 6.3 6.3 6.5 6.6 7.0 7.1 7.1 7.3 7.3 7.1 7.1 7.1 6.9 6.7 6.9 7.4 7.4 7.5 7.3 6.7 6.4 5.9 5.5 5.4 5.2 4.6 4.1 3.8 3.3 3.6 3.7 3.9 3.9 3.9 4.4
Wind_Speed
6 3 6 3 3 3 2 7 9 7 5 5 5 11 14 14 14 12 12 9 10 10 10 11 13 17 18 21 22 23 23 24 24 23 23 23 22 21
3 3 3 3 5 1 2 3 8 6 4 8 4 9 13 13 11 10 13 11 7 7 7 8 10 12 14 16 17 19 20 21 21 22 21 20 19 18
3 3 3 4 4 3 2 4 4 5 7 7 7 6 9 7 11 13 14 14 11 8 7 6 8 8 10 11 13 14 13 15 17 19 19 19 19 17
4 4 5 5 2 2 3 2 3 5 4 12 9 5 8 9 10 9 14 15 17 16 12 8 7 6 7 7 9 11 10 11 12 14 16 16 16 16
5 4 3 3 4 0 4 5 4 4 5 9 10 9 6 8 8 8 5 4 8 20 14 12 9 7 6 6 6 7 6 6 7 8 10 11 12 13
6 6 5 5 4 3 6 4 5 7 6 7 6 7 9 9 8 8 6 5 5 16 17 16 16 15 12 11 8 6 3 1 1 3 7 8 11 11
6 5 6 5 7 6 1 6 6 5 7 7 7 7 8 8 7 7 7 8 6 3 7 13 15 14 16 16 13 9 5 3 3 2 2 4 6 8
5 5 5 5 3 7 8 14 8 4 5 6 6 6 5 5 6 5 6 4 5 10 6 5 2 4 12 20 21 17 10 5 4 4 4 2 2 3
7 5 7 7 8 7 5 6 9 9 7 1 1 3 6 5 1 4 5 4 5 5 4 7 6 5 4 17 23 19 14 9 7 7 7 4 5 6
7 6 6 8 6 8 9 8 7 5 3 3 4 4 3 6 5 5 3 4 2 4 4 5 5 5 3 16 20 17 13 11 9 9 10 9 9 13
6 4 3 8 5 4 9 9 8 6 6 10 14 10 9 7 7 6 6 6 6 6 4 7 2 4 3 5 16 18 17 17 15 13 13 12 11 14
9 9 3 5 8 4 5 8 8 7 7 6 5 4 4 7 7 6 5 8 6 4 6 5 5 3 6 7 5 15 15 19 18 17 16 15 14 10
8 8 8 10 10 7 5 8 7 8 9 8 7 7 8 8 9 11 9 6 6 5 9 5 3 5 5 3 4 8 8 11 14 16 20 18 17 16
8 8 8 15 12 9 7 6 7 6 8 8 8 8 9 9 9 13 13 11 10 4 6 3 5 6 6 6 5 2 7 10 6 3 2 10 20 21
8 6 16 17 15 9 8 5 7 8 8 8 9 9 9 9 10 9 11 11 11 10 10 9 6 6 6 7 6 3 1 3 9 3 6 7 5 6
5 7 11 10 11 10 11 9 9 10 10 9 9 9 8 9 9 8 9 9 9 9 17 14 13 8 8 8 7 6 4 3 3 6 3 4 7 9
11 10 9 9 10 10 11 12 11 11 11 10 10 9 9 9 9 9 9 9 10 10 9 10 16 15 11 10 8 5 2 2 2 8 2 4 6 10
12 12 11 12 12 11 11 11 11 12 11 10 10 10 10 10 10 9 9 10 10 10 9 8 10 8 8 12 11 6 4 3 1 10 6 7 7 10
13 13 11 11 11 11 11 12 12 12 12 11 11 11 11 10 10 10 10 10 11 10 9 9 9 11 11 11 5 17 4 2 1 8 6 7 6 7
14 13 12 12 11 11 11 12 11 11 12 11 12 11 11 11 11 11 11 12 11 11 11 10 11 11 11 9 4 5 11 4 4 6 7 6 9 19
15 14 14 13 13 13 12 11 12 11 11 11 13 12 12 12 12 12 12 13 12 12 12 11 9 13 4 7 5 4 3 14 14 5 6 3 4 8
14 14 14 12 12 11 11 11 11 12 12 12 12 12 13 13 13 13 13 13 12 12 12 9 8 7 5 8 7 6 5 5 16 23 28 17 4 7
14 14 13 13 12 12 12 12 13 13 14 14 14 13 13 12 12 13 13 13 12 12 10 10 10 6 7 7 9 7 7 7 5 7 8 23 27 26
Wind_Direction
186 187 266 276 231 206 149 179 154 160 172 188 159 124 117 137 161 128 121 117 106 97 88 76 67 64 60 60 59 56 56 56 56 55 56 56 56 58
205 148 271 272 246 233 272 255 158 166 133 169 131 150 165 146 168 146 132 139 128 123 113 99 83 73 65 62 62 59 58 58 54 50 49 50 52 53
81 165 239 332 280 190 220 241 192 170 139 119 122 138 143 173 157 131 165 161 160 168 153 130 106 92 78 72 69 67 62 59 55 50 49 50 48 45
157 153 206 201 246 25 233 336 341 87 149 140 141 160 182 160 174 181 211 181 158 173 173 169 150 134 119 105 94 86 74 66 60 52 50 49 47 44
167 170 192 170 200 193 279 163 151 137 134 148 163 181 157 179 167 228 232 62 163 160 176 181 183 179 168 156 136 116 96 78 66 56 62 61 50 50
173 189 181 194 170 204 222 217 142 152 166 150 175 158 172 162 191 194 195 190 154 180 186 184 189 195 191 192 179 153 141 179 64 29 42 56 54 55
172 174 184 76 53 42 3 206 143 166 180 168 173 171 191 164 218 222 200 203 163 231 200 159 189 193 204 204 194 182 181 218 250 270 359 44 51 46
174 190 132 134 116 67 39 50 43 209 182 180 178 186 134 181 195 209 229 170 199 192 248 253 249 255 185 202 190 173 174 190 225 237 244 318 355 14
184 188 197 158 166 147 97 90 69 50 34 3 318 122 152 215 165 217 253 188 257 122 216 254 162 242 192 127 151 168 177 187 211 225 238 265 291 289
180 208 226 143 164 168 174 176 167 161 138 246 186 179 192 170 187 205 190 240 269 264 159 265 158 247 159 142 168 178 190 206 223 234 241 254 277 292
174 201 177 183 117 330 195 176 173 134 93 66 85 97 102 103 178 181 189 202 219 208 163 254 204 242 183 199 183 190 204 215 221 230 238 249 265 294
183 183 93 203 141 260 221 177 181 177 168 154 135 127 181 194 220 245 217 217 241 203 159 209 231 221 231 191 198 181 212 220 224 230 226 229 243 263
187 182 193 147 154 218 260 198 195 170 151 180 180 184 196 187 205 219 245 267 249 242 154 179 242 205 235 275 202 194 222 163 210 215 223 231 236 235
202 194 172 165 168 200 231 138 129 183 182 208 201 203 201 212 204 196 208 227 259 330 135 273 242 242 247 252 254 197 180 189 209 217 230 232 235 247
218 234 151 167 169 188 233 184 174 211 220 208 224 219 215 217 214 187 197 209 240 245 217 205 239 261 257 257 270 262 296 35 334 216 200 234 263 287
163 137 153 171 187 205 193 209 221 223 221 228 229 229 229 222 215 226 211 211 227 226 220 216 207 230 249 260 248 234 225 130 359 293 286 299 293 294
215 209 183 199 205 211 222 214 216 224 228 232 232 233 231 228 225 219 227 232 230 232 233 191 204 215 233 249 260 249 130 84 331 283 284 263 270 288
214 218 216 212 216 218 217 220 216 214 226 224 229 236 231 230 230 223 224 228 236 237 234 216 187 196 222 238 231 245 165 149 98 287 276 270 277 283
212 219 227 223 218 216 221 218 222 218 209 225 224 227 231 236 233 235 225 225 229 231 236 227 214 200 219 231 179 213 200 115 164 277 275 273 281 282
216 223 220 228 225 222 221 224 222 218 213 219 226 233 232 233 234 235 232 235 230 227 226 225 231 234 232 223 185 154 180 149 193 260 268 276 274 277
212 221 220 226 220 223 221 225 226 225 221 218 219 225 227 230 232 235 238 235 229 233 233 226 230 227 178 106 125 152 180 185 199 239 276 262 276 290
218 219 231 231 235 233 222 223 224 224 233 228 229 227 221 226 231 232 235 239 235 231 233 236 219 195 162 181 177 172 179 170 222 249 249 245 242 265
223 223 218 221 234 235 234 229 224 229 226 224 229 225 227 238 226 232 240 239 237 242 232 221 223 178 193 198 171 177 160 171 203 231 247 251 253 255